Red Oak, IA

2:22 AM CST on February 09, 2016 (GMT -0600)
Red Oak Municipal

Weather History for KRDK - April, 2013

Change the Weather History Date:

Sunday, April 21, 2013

  Actual Average Record
Temperature  
Mean Temperature 56 °F -  
Max Temperature 69 °F 65 °F 92 °F (1980)
Min Temperature 44 °F 40 °F -99 °F (1998)
Degree Days  
Heating Degree Days 8    
Growing Degree Days 6 (Base 50)    
Moisture  
Dew Point 38 °F    
Average Humidity 51    
Maximum Humidity 88    
Minimum Humidity 28    
Precipitation  
Precipitation 0.22 in - - ()
Sea Level Pressure  
Sea Level Pressure 30.11 in    
Wind  
Wind Speed 13 mph (South)    
Max Wind Speed 29 mph    
Max Gust Speed 37 mph    
Visibility 10 miles    
Events Rain    
Averages and records for this station are not official NWS values.
T = Trace of Precipitation, MM = Missing Value Source: NWS Daily Summary

Daily Weather History Graph

Daily Weather History Graph

Search for Another Location

Airport or City:

Trip Planner

Search our weather history database for the weather conditions in past years. The results will help you decide how hot, cold, wet, or windy it might be!

Date:

Astronomy

Apr. 21, 2013 Rise Set
Actual Time 6:32 AM CDT 8:07 PM CDT
Civil Twilight 6:03 AM CDT 8:36 PM CDT
Nautical Twilight 5:28 AM CDT 9:11 PM CDT
Astronomical Twilight 4:51 AM CDT 9:49 PM CDT
Moon 3:51 PM CDT (4/21) 3:57 AM CDT (4/21)
Length of Visible Light 14h 33m
Length of Day
13h 35m
Waxing Gibbous, 80% of the Moon is Illuminated
Apr 21
Waxing Gibbous
Apr 25
Full
May 2
Last Quarter
May 9
New
May 17
First Quarter

Hourly Weather History & Observations

Time (CDT) Temp. Windchill Dew Point Humidity Pressure Visibility Wind Dir Wind Speed Gust Speed Precip Events Conditions
12:15 AM 44.6 °F 40.7 °F 28.4 °F 53% 30.18 in 10.0 mi SSE 6.9 mph - N/A   Overcast
12:35 AM 44.6 °F 40.7 °F 28.4 °F 53% 30.18 in 10.0 mi SE 6.9 mph - N/A   Overcast
12:55 AM 44.6 °F 42.2 °F 28.4 °F 53% 30.18 in 10.0 mi ESE 4.6 mph - N/A   Overcast
1:15 AM 44.6 °F - 28.4 °F 53% 30.18 in 10.0 mi Calm Calm - N/A   Overcast
1:35 AM 44.6 °F 42.2 °F 30.2 °F 57% 30.19 in 10.0 mi SSE 4.6 mph - N/A   Overcast
4:15 AM 46.4 °F 41.5 °F 30.2 °F 53% 30.14 in 10.0 mi SSE 10.4 mph - N/A   Overcast
4:35 AM 46.4 °F 41.1 °F 30.2 °F 53% 30.14 in 10.0 mi SSE 11.5 mph 17.3 mph N/A   Overcast
4:55 AM 44.6 °F 38.4 °F 30.2 °F 57% 30.13 in 10.0 mi SSE 12.7 mph - N/A   Overcast
5:15 AM 44.6 °F 40.2 °F 30.2 °F 57% 30.14 in 10.0 mi SSE 8.1 mph 17.3 mph N/A   Overcast
5:35 AM 46.4 °F 41.1 °F 30.2 °F 53% 30.14 in 10.0 mi SSE 11.5 mph - N/A   Overcast
5:55 AM 44.6 °F 39.2 °F 30.2 °F 57% 30.14 in 10.0 mi SSE 10.4 mph - N/A   Overcast
6:15 AM 44.6 °F 39.2 °F 30.2 °F 57% 30.14 in 10.0 mi SSE 10.4 mph - N/A   Overcast
6:35 AM 44.6 °F 40.2 °F 32.0 °F 61% 30.15 in 10.0 mi SSE 8.1 mph - N/A   Overcast
6:55 AM 44.6 °F 39.7 °F 32.0 °F 61% 30.16 in 10.0 mi SSE 9.2 mph - N/A   Overcast
7:15 AM 44.6 °F 39.7 °F 32.0 °F 61% 30.16 in 10.0 mi SSE 9.2 mph - N/A   Overcast
7:35 AM 44.6 °F 40.2 °F 33.8 °F 66% 30.17 in 10.0 mi SSE 8.1 mph - N/A   Scattered Clouds
7:55 AM 46.4 °F 41.5 °F 33.8 °F 62% 30.17 in 10.0 mi SSE 10.4 mph - N/A   Scattered Clouds
8:15 AM 48.2 °F - 35.6 °F 62% 30.17 in 10.0 mi South 10.4 mph - N/A   Clear
8:35 AM 48.2 °F - 35.6 °F 62% 30.17 in 10.0 mi South 13.8 mph 19.6 mph N/A   Clear
8:55 AM 51.8 °F - 37.4 °F 58% 30.16 in 10.0 mi SSE 13.8 mph - N/A   Clear
9:15 AM 53.6 °F - 37.4 °F 54% 30.16 in 10.0 mi South 16.1 mph - N/A   Clear
9:35 AM 55.4 °F - 37.4 °F 51% 30.15 in 10.0 mi South 17.3 mph - N/A   Clear
9:55 AM 57.2 °F - 39.2 °F 51% 30.15 in 10.0 mi South 18.4 mph - N/A   Scattered Clouds
10:15 AM 57.2 °F - 39.2 °F 51% 30.15 in 10.0 mi South 13.8 mph 24.2 mph N/A   Mostly Cloudy
10:35 AM 59.0 °F - 39.2 °F 48% 30.15 in 10.0 mi South 23.0 mph - N/A   Scattered Clouds
10:55 AM 60.8 °F - 41.0 °F 48% 30.15 in 10.0 mi South 19.6 mph 25.3 mph N/A   Mostly Cloudy
11:15 AM 62.6 °F - 39.2 °F 42% 30.14 in 10.0 mi South 21.9 mph 31.1 mph N/A   Mostly Cloudy
11:35 AM 64.4 °F - 41.0 °F 42% 30.13 in 10.0 mi South 21.9 mph 28.8 mph N/A   Scattered Clouds
11:55 AM 66.2 °F - 39.2 °F 37% 30.12 in 10.0 mi SSW 25.3 mph 28.8 mph N/A   Clear
12:15 PM 66.2 °F - 37.4 °F 35% 30.11 in 10.0 mi SSW 26.5 mph 35.7 mph N/A   Clear
12:35 PM 66.2 °F - 37.4 °F 35% 30.10 in 10.0 mi SSW 25.3 mph 35.7 mph N/A   Clear
12:55 PM 68.0 °F - 37.4 °F 33% 30.10 in 10.0 mi South 27.6 mph 35.7 mph N/A   Clear
1:15 PM 69.8 °F - 37.4 °F 31% 30.09 in 10.0 mi South 26.5 mph 35.7 mph N/A   Scattered Clouds
1:35 PM 68.0 °F - 35.6 °F 30% 30.08 in 10.0 mi South 28.8 mph 35.7 mph N/A   Scattered Clouds
1:55 PM 69.8 °F - 35.6 °F 28% 30.08 in 10.0 mi SSW 25.3 mph 34.5 mph N/A   Scattered Clouds
2:15 PM 69.8 °F - 35.6 °F 28% 30.08 in 10.0 mi South 27.6 mph 33.4 mph N/A   Scattered Clouds
2:35 PM 68.0 °F - 35.6 °F 30% 30.07 in 10.0 mi South 27.6 mph 36.8 mph N/A   Scattered Clouds
2:55 PM 66.2 °F - 35.6 °F 32% 30.06 in 10.0 mi South 24.2 mph 32.2 mph N/A   Scattered Clouds
3:15 PM 66.2 °F - 37.4 °F 35% 30.06 in 10.0 mi South 21.9 mph 29.9 mph N/A   Mostly Cloudy
3:35 PM 66.2 °F - 37.4 °F 35% 30.06 in 10.0 mi South 20.7 mph 27.6 mph N/A   Overcast
3:55 PM 66.2 °F - 37.4 °F 35% 30.05 in 10.0 mi South 21.9 mph 29.9 mph N/A   Mostly Cloudy
4:15 PM 68.0 °F - 37.4 °F 33% 30.05 in 10.0 mi South 24.2 mph 35.7 mph N/A   Mostly Cloudy
4:35 PM 66.2 °F - 39.2 °F 37% 30.04 in 10.0 mi South 21.9 mph 29.9 mph N/A   Scattered Clouds
4:55 PM 66.2 °F - 39.2 °F 37% 30.04 in 10.0 mi South 19.6 mph - N/A   Clear
5:15 PM 66.2 °F - 39.2 °F 37% 30.04 in 10.0 mi South 18.4 mph 26.5 mph N/A   Scattered Clouds
5:35 PM 64.4 °F - 41.0 °F 42% 30.04 in 10.0 mi South 16.1 mph - N/A Rain Light Rain
5:55 PM 62.6 °F - 44.6 °F 52% 30.05 in 10.0 mi South 13.8 mph 25.3 mph N/A Rain Light Rain
6:15 PM 64.4 °F - 42.8 °F 45% 30.05 in 10.0 mi South 17.3 mph - N/A   Mostly Cloudy
6:35 PM 64.4 °F - 42.8 °F 45% 30.04 in 10.0 mi South 17.3 mph - N/A   Scattered Clouds
6:55 PM 64.4 °F - 42.8 °F 45% 30.04 in 10.0 mi South 11.5 mph - N/A   Scattered Clouds
7:15 PM 62.6 °F - 42.8 °F 48% 30.04 in 10.0 mi South 18.4 mph 21.9 mph N/A   Mostly Cloudy
7:35 PM 62.6 °F - 42.8 °F 48% 30.04 in 10.0 mi South 13.8 mph - N/A   Scattered Clouds
7:55 PM 60.8 °F - 42.8 °F 52% 30.04 in 10.0 mi South 12.7 mph - N/A   Clear
8:15 PM 60.8 °F - 42.8 °F 52% 30.05 in 10.0 mi South 12.7 mph - N/A   Scattered Clouds
8:35 PM 60.8 °F - 44.6 °F 55% 30.05 in 10.0 mi South 10.4 mph - N/A   Scattered Clouds
8:55 PM 59.0 °F - 44.6 °F 59% 30.06 in 10.0 mi SSE 10.4 mph - N/A   Clear
9:15 PM 59.0 °F - 44.6 °F 59% 30.06 in 10.0 mi SSE 9.2 mph - N/A   Clear
9:35 PM 57.2 °F - 44.6 °F 63% 30.07 in 10.0 mi SSE 10.4 mph - N/A   Scattered Clouds
9:55 PM 57.2 °F - 44.6 °F 63% 30.08 in 10.0 mi SSE 9.2 mph - N/A   Mostly Cloudy
10:15 PM 57.2 °F - 44.6 °F 63% 30.09 in 10.0 mi South 8.1 mph - N/A Rain Light Rain
10:35 PM 57.2 °F - 48.2 °F 72% 30.12 in 10.0 mi NW 8.1 mph - N/A Rain Light Rain
10:55 PM 53.6 °F - 48.2 °F 82% 30.16 in 7.0 mi WNW 11.5 mph 21.9 mph 0.02 in Rain Heavy Rain
11:15 PM 53.6 °F - 48.2 °F 82% 30.16 in 10.0 mi WNW 10.4 mph - 0.07 in Rain Heavy Rain
11:35 PM 53.6 °F - 48.2 °F 82% 30.15 in 10.0 mi West 6.9 mph - 0.15 in Rain Rain
11:55 PM 51.8 °F - 48.2 °F 88% 30.15 in 10.0 mi West 9.2 mph - 0.20 in Rain Heavy Rain